Theta_e
310 310 310 310 310 310 310 309 308 307 307 305 304 302 302 302 305 307 307 310 312 313 312 321 326 328 326 326 327 324 329 331 330 330 329 326 327 326 323 324 324 322 323 323 324
308 308 309 309 310 310 310 310 309 308 308 307 307 305 302 301 305 308 311 312 312 310 312 327 327 327 325 326 327 328 329 331 329 328 328 326 325 324 323 323 323 324 324 323 323
307 307 308 308 308 308 309 309 309 309 309 308 308 307 305 301 309 307 314 316 317 312 310 317 328 325 326 326 326 326 330 328 329 328 327 326 327 327 324 322 322 322 323 321 320
305 305 306 307 308 307 306 307 309 310 310 309 308 308 307 305 306 311 316 314 313 319 315 316 318 325 328 328 326 329 328 329 329 329 329 328 326 327 327 326 326 321 323 321 320
306 306 305 304 305 306 306 305 307 308 308 307 308 310 310 312 305 311 317 312 320 318 317 317 317 316 318 323 327 329 328 327 328 328 328 328 327 327 327 326 323 321 323 322 321
307 307 306 306 306 305 304 305 305 305 305 308 309 310 311 307 304 306 308 307 308 319 320 317 317 316 316 317 318 322 324 325 327 327 328 328 328 326 326 325 322 320 323 322 321
305 305 306 306 306 307 306 304 304 305 307 307 309 310 310 312 307 305 307 308 308 308 319 319 317 317 315 316 314 315 317 318 319 322 324 326 324 325 325 323 321 319 321 322 321
305 304 305 306 306 307 307 306 305 304 305 307 308 309 311 310 309 310 309 307 306 309 311 316 319 315 315 314 316 317 317 319 319 321 321 322 324 324 324 322 322 320 320 320 320
305 304 304 305 305 306 306 306 306 306 305 307 307 309 310 308 310 309 309 306 307 306 307 313 315 315 314 316 315 315 317 316 317 319 320 322 324 323 323 322 322 321 319 320 319
305 304 304 304 305 305 305 304 304 306 306 307 307 310 309 309 308 309 309 307 308 309 309 310 315 316 313 313 316 316 317 318 318 320 319 321 322 323 322 322 322 322 321 321 319
305 305 304 304 304 304 305 304 302 308 308 309 308 307 309 310 310 311 308 307 308 310 308 310 313 321 320 319 318 316 319 320 320 321 322 322 322 322 323 322 322 320 319 319 320
304 305 305 304 304 304 305 301 304 305 308 307 307 310 310 310 311 311 309 309 309 307 309 312 312 316 321 321 320 319 319 320 321 321 321 321 321 322 322 322 323 324 321 320 323
304 304 304 303 304 304 302 303 304 303 307 309 308 309 309 310 312 311 312 312 311 309 309 310 313 314 319 318 322 322 320 319 320 321 321 320 322 321 323 324 324 323 322 322 322
303 302 304 303 304 303 304 303 304 304 309 310 312 310 310 310 311 310 312 315 313 311 309 309 310 313 315 317 316 317 317 318 319 321 323 321 325 323 323 323 323 323 320 319 322
303 303 304 303 304 304 303 304 305 305 307 307 309 311 311 311 313 312 311 312 315 312 311 311 311 312 314 314 314 317 318 319 319 321 322 324 324 322 322 324 322 321 319 322 321
303 304 304 304 303 303 304 304 304 311 311 308 307 307 310 313 312 313 314 312 314 315 312 310 312 312 313 315 315 317 317 319 319 320 324 323 323 323 323 323 323 323 321 322 322
303 303 304 304 303 304 304 303 311 312 308 307 307 306 308 308 313 313 315 314 314 315 316 312 312 313 313 313 313 314 312 316 321 323 326 322 323 325 323 322 322 322 323 323 323
302 302 303 303 303 303 304 306 309 308 309 307 307 306 308 307 307 311 314 317 314 313 314 315 314 313 314 314 314 313 314 320 324 326 325 323 326 325 322 322 322 322 323 323 324
302 302 303 304 304 303 306 306 306 308 307 307 306 307 307 307 307 310 311 314 315 314 313 315 314 315 314 314 313 313 317 317 320 323 323 323 323 323 324 326 325 326 325 324 324
302 302 302 304 304 305 306 304 305 305 305 307 307 307 307 307 307 308 311 314 316 315 313 314 314 315 315 314 313 312 313 317 315 323 327 325 326 326 324 327 327 327 325 324 323
301 300 302 304 305 304 306 303 305 303 304 307 307 307 307 308 308 308 311 313 312 313 315 314 314 317 315 315 315 313 314 313 314 317 323 324 324 322 323 326 327 325 324 324 323
300 299 302 305 306 304 305 305 305 305 305 306 307 307 308 309 309 307 310 311 311 312 314 315 312 315 316 315 316 315 314 313 317 319 318 321 323 321 321 324 326 325 324 323 322
300 301 302 305 306 306 306 305 305 306 306 306 307 305 306 308 307 310 311 312 310 310 312 315 316 316 315 318 315 315 314 314 313 318 322 322 323 319 320 319 326 324 324 323 322
300 302 300 300 299 305 305 305 305 305 305 304 304 304 304 305 306 309 309 307 308 308 314 310 315 318 316 317 317 315 315 313 314 315 318 323 323 325 324 326 327 326 324 323 323
296 298 302 301 302 302 302 303 305 307 305 304 304 304 305 305 308 309 308 309 308 308 311 309 313 318 319 315 316 319 315 315 316 316 318 319 322 322 323 324 327 325 323 323 323
297 303 300 300 301 302 301 305 307 308 308 308 307 307 308 309 310 310 310 310 310 309 311 308 310 316 322 318 316 316 318 315 315 317 319 322 321 320 322 325 327 326 325 325 324
301 301 302 302 302 298 300 304 305 307 307 307 307 306 308 308 309 308 309 309 310 310 311 310 311 311 321 320 316 316 316 317 317 319 320 322 322 320 322 327 327 326 325 325 324
Wind_Speed
18 18 19 19 18 19 20 20 19 19 19 19 20 20 20 22 21 18 9 19 14 11 21 7 11 11 7 4 5 4 2 5 6 5 9 3 3 5 4 4 3 8 6 6 21
19 19 19 19 19 19 19 20 20 20 20 19 20 21 20 20 20 16 32 27 29 24 12 12 6 7 3 5 5 5 5 9 10 6 7 10 3 8 5 9 4 5 3 5 31
17 17 19 20 20 20 20 21 20 20 20 20 20 21 18 13 6 10 5 4 4 21 25 19 7 7 5 5 6 6 11 22 9 10 5 9 20 10 9 10 10 8 6 7 8
20 19 18 18 19 21 21 21 20 20 20 20 20 20 18 2 9 3 13 8 11 9 21 11 4 5 6 9 10 5 12 18 18 18 6 12 10 16 19 21 20 13 10 10 14
22 22 21 21 21 20 22 23 22 21 20 20 18 15 9 5 9 10 16 7 9 9 22 9 6 7 8 5 2 7 13 15 15 15 16 18 15 19 21 21 14 7 11 16 16
23 24 24 22 21 21 22 22 23 24 23 19 17 12 5 12 16 30 39 34 22 7 10 12 9 6 4 6 5 6 8 13 11 16 19 19 19 10 16 13 10 9 15 16 16
23 24 25 25 25 24 23 24 25 25 23 20 17 14 16 24 12 10 13 19 25 23 10 22 19 5 5 5 6 7 15 15 10 15 12 18 18 22 18 12 11 11 13 15 18
25 25 26 26 26 27 27 28 28 25 23 19 16 16 13 16 23 36 36 39 26 13 17 19 15 7 4 2 7 5 4 7 9 17 15 8 20 19 16 10 16 10 10 11 16
26 27 26 26 27 29 32 35 37 32 24 18 11 10 13 14 14 43 36 18 26 22 20 7 8 6 4 5 5 3 14 17 20 13 6 6 18 12 8 7 13 11 12 14 19
24 26 27 27 27 27 32 37 26 11 2 8 12 2 9 8 9 10 16 29 10 6 5 8 5 6 5 5 15 13 8 7 16 3 9 15 16 17 14 12 13 13 14 12 12
25 26 24 25 27 26 26 16 4 2 3 8 6 7 5 22 23 10 11 15 7 5 11 9 8 19 26 21 13 10 6 10 17 2 8 7 11 11 14 8 11 11 10 11 7
26 27 27 25 24 24 24 2 3 5 11 12 21 23 37 18 9 8 21 8 8 18 10 6 30 21 16 15 15 10 11 16 19 6 6 8 14 14 13 10 10 12 9 6 3
28 27 26 25 25 15 4 11 9 17 6 10 14 10 14 17 13 10 10 7 7 13 26 29 21 17 20 16 16 18 18 17 20 3 7 7 13 13 17 5 8 10 9 6 11
27 26 24 23 14 8 9 3 22 15 5 7 6 7 7 9 13 18 11 6 7 19 19 19 19 23 17 24 16 19 14 17 18 4 8 4 5 5 9 12 7 9 9 9 6
26 25 22 16 14 7 7 21 24 2 5 2 4 5 4 13 6 14 25 10 12 10 10 12 18 22 19 19 21 17 12 9 13 8 5 8 3 7 4 8 10 9 9 4 8
27 26 23 17 11 18 18 21 5 3 8 6 5 11 4 11 17 5 12 12 8 5 7 9 9 23 21 17 20 8 2 2 11 3 10 18 7 5 7 9 7 5 3 7 8
28 28 22 14 6 2 16 6 3 6 4 1 10 15 8 12 8 10 10 17 17 13 16 5 13 5 11 15 7 13 6 4 3 5 6 8 5 14 7 9 9 9 7 9 12
27 27 18 17 17 9 3 1 6 5 12 14 16 14 6 18 8 11 11 13 23 15 11 14 11 22 14 14 13 14 14 6 5 3 5 7 7 7 10 9 9 4 7 9 10
25 15 12 13 6 8 2 5 4 3 6 12 14 7 6 14 7 10 6 13 8 18 7 12 16 2 19 5 16 16 15 13 2 3 2 5 6 8 1 3 3 8 10 9 11
18 8 8 12 8 5 0 5 4 5 10 10 6 7 11 13 9 13 6 11 11 7 3 2 4 8 18 20 17 9 10 7 5 6 5 4 3 6 5 7 5 7 9 8 7
5 3 5 4 10 2 2 5 5 10 10 5 5 7 9 11 4 7 5 8 18 18 11 4 2 3 9 15 19 8 11 5 7 5 5 1 6 7 9 9 12 10 10 11 12
4 3 5 2 1 1 1 4 5 8 6 6 6 9 11 11 9 4 8 9 13 14 9 6 5 5 11 5 19 19 17 9 11 9 5 3 7 5 11 14 14 14 10 8 9
4 3 5 4 2 1 3 6 5 7 9 4 4 4 11 12 7 1 5 9 12 15 13 8 5 7 6 2 3 23 21 22 3 3 7 11 10 3 4 8 10 11 9 9 9
3 3 3 2 2 2 4 6 3 7 10 6 6 4 9 10 9 7 12 9 16 19 13 6 5 13 14 3 5 13 22 9 16 9 8 11 3 4 6 9 7 7 8 11 12
3 3 1 3 3 7 3 4 6 8 5 7 4 5 3 6 8 12 13 14 12 15 4 4 4 5 18 20 9 4 12 22 18 14 16 14 9 9 12 12 12 10 8 10 11
1 2 3 6 6 4 3 2 8 6 3 7 4 8 4 5 8 10 14 9 8 6 6 5 4 7 7 18 24 18 5 20 22 14 12 7 8 9 11 6 10 14 14 15 15
3 2 1 4 5 2 3 5 9 13 6 10 13 10 7 11 8 12 13 13 10 6 6 5 3 9 6 14 8 15 26 12 12 18 18 15 11 7 4 12 15 13 16 17 17
Wind_Direction
331 330 330 328 324 324 325 327 328 326 323 318 317 310 311 311 313 308 246 250 260 287 254 252 177 182 162 194 182 134 109 254 239 196 251 170 350 301 285 247 237 202 174 254 174
332 327 323 320 318 316 313 314 316 320 321 322 324 324 320 324 317 277 266 276 272 258 229 182 166 164 186 198 200 159 155 237 219 194 253 296 184 291 303 300 283 284 218 179 162
329 328 327 325 320 314 308 309 309 311 312 314 320 327 331 331 298 248 240 85 297 249 237 226 160 153 215 164 210 190 211 231 264 244 221 286 294 297 273 279 247 232 214 161 161
340 329 321 322 322 317 314 310 308 302 303 308 314 322 328 290 241 238 158 79 4 240 203 193 176 175 212 194 213 224 233 241 250 259 271 263 292 289 288 276 280 238 186 168 181
338 335 334 324 316 315 316 312 306 301 300 304 309 321 334 249 234 216 205 291 349 166 188 183 161 182 220 201 184 191 245 248 269 284 276 278 267 267 280 279 271 248 162 187 194
336 332 329 326 324 316 308 302 300 298 299 300 299 308 249 249 249 250 256 270 262 230 186 187 194 182 222 237 217 246 254 268 257 261 273 275 273 278 272 278 269 191 194 197 200
331 329 328 323 320 315 311 305 300 297 296 292 289 282 251 241 244 251 265 269 265 239 220 208 222 195 176 300 275 261 284 280 259 266 259 266 272 265 272 272 267 222 214 206 212
331 328 325 322 318 313 309 306 302 286 278 277 278 269 255 277 276 265 252 258 253 225 235 242 222 217 187 289 331 336 292 271 270 253 255 210 271 274 278 261 266 239 229 216 225
329 327 327 324 319 316 313 310 303 291 271 259 258 233 274 286 224 244 235 226 235 241 242 234 154 184 123 202 309 255 260 264 278 251 260 201 274 276 266 258 262 257 221 217 231
327 325 324 324 324 317 320 315 323 330 192 184 222 221 249 238 239 242 233 215 229 188 162 182 190 178 149 151 222 218 230 259 255 140 226 252 261 272 272 245 253 263 254 220 217
325 324 324 323 324 323 326 337 3 29 196 214 209 244 286 17 281 227 175 168 179 202 183 172 196 205 207 206 225 236 222 246 260 193 233 245 263 272 278 296 267 260 244 243 239
325 323 322 323 322 317 311 244 244 334 298 262 253 240 263 277 296 282 147 141 174 202 158 167 226 207 204 208 217 241 247 253 283 272 245 271 269 276 278 265 239 261 261 249 199
326 323 322 324 321 314 293 264 319 334 265 273 225 229 215 199 225 250 187 150 172 187 192 203 225 200 203 206 203 222 230 246 250 333 265 284 283 284 283 250 260 246 234 225 204
326 323 323 327 321 324 285 354 324 324 286 272 215 245 200 213 227 225 223 175 188 200 199 230 224 196 198 212 197 224 215 242 259 276 264 129 284 295 285 303 287 258 238 241 172
324 322 321 322 293 279 277 325 327 186 296 230 136 137 222 183 152 216 196 223 209 165 171 210 184 212 211 205 200 230 224 226 247 234 258 248 270 264 233 284 281 265 247 216 155
326 322 317 315 274 269 294 320 314 182 244 308 74 350 46 222 246 298 168 203 172 223 229 214 202 201 213 202 208 206 248 261 252 239 254 263 187 226 235 224 258 246 223 143 128
325 322 307 274 257 244 315 339 206 223 285 27 354 341 340 337 219 243 240 190 187 196 215 163 222 223 176 206 173 202 130 254 275 219 229 237 189 245 247 233 224 260 180 153 147
326 324 315 282 276 280 304 146 236 249 256 350 352 330 54 7 342 340 234 206 215 195 187 203 210 211 179 197 193 212 182 172 200 209 193 183 230 247 214 231 230 212 149 144 147
328 331 316 342 294 218 211 208 238 306 18 348 337 350 353 355 340 351 331 239 226 216 185 200 229 180 188 150 173 201 206 181 30 291 132 220 280 323 32 261 160 144 144 166 164
331 323 308 344 138 143 128 258 292 333 352 2 6 354 331 335 350 4 312 33 348 297 195 276 193 218 202 197 202 173 161 174 200 204 219 267 219 220 212 223 165 155 175 166 141
344 359 360 118 144 61 218 236 296 304 317 338 327 309 300 301 0 357 295 318 15 347 321 200 146 263 196 203 182 175 179 177 156 199 174 207 254 209 206 185 187 197 190 158 172
11 345 330 241 68 220 274 317 326 301 299 279 256 246 273 316 312 315 271 323 358 2 351 284 209 207 235 250 194 204 198 188 194 194 240 164 260 238 198 195 185 191 174 170 173
347 305 329 37 65 347 256 269 263 276 279 273 292 308 291 287 317 347 295 314 317 9 338 330 275 251 339 211 183 199 198 215 149 101 190 204 252 191 213 197 205 165 162 163 152
6 336 323 60 178 293 330 288 290 302 299 260 260 296 290 287 270 284 282 286 306 315 338 335 280 234 218 238 139 196 204 173 194 217 211 226 186 177 183 159 161 170 169 164 166
25 300 339 312 324 311 279 286 308 320 288 276 288 231 312 279 298 280 274 289 279 309 335 33 276 307 266 252 275 189 189 201 204 198 202 228 201 212 190 172 190 181 146 152 166
77 335 9 289 289 290 280 280 309 325 271 319 301 314 303 255 257 283 290 285 287 289 345 347 283 323 259 243 241 249 248 202 215 209 227 194 223 205 204 179 146 170 179 177 183
312 311 223 289 314 347 258 339 301 318 257 228 279 304 270 259 270 288 279 269 242 212 247 295 336 351 278 230 239 252 239 225 208 206 198 208 222 152 152 169 176 174 188 183 187